TimeCDT,TemperatureF,Dew PointF,Humidity,Sea Level PressureIn,VisibilityMPH,Wind Direction,Wind SpeedMPH,Gust SpeedMPH,PrecipitationIn,Events,Conditions,WindDirDegrees,DateUTC
12:54 AM,75.9,70.0,82,30.07,10.0,SSE,3.5,-,N/A,,Clear,160,2013-08-27 05:54:00
1:54 AM,73.0,69.1,87,30.06,10.0,Calm,Calm,-,N/A,,Clear,0,2013-08-27 06:54:00
2:54 AM,72.0,70.0,93,30.06,10.0,South,5.8,-,N/A,,Clear,180,2013-08-27 07:54:00
3:54 AM,71.1,69.1,93,30.06,10.0,South,5.8,-,N/A,,Clear,180,2013-08-27 08:54:00
4:54 AM,70.0,69.1,97,30.05,7.0,South,5.8,-,N/A,,Clear,190,2013-08-27 09:54:00
5:54 AM,71.1,69.1,93,30.06,7.0,South,5.8,-,N/A,,Clear,190,2013-08-27 10:54:00
6:54 AM,69.1,68.0,96,30.07,3.0,South,5.8,-,N/A,,Clear,190,2013-08-27 11:54:00
7:54 AM,73.0,71.1,93,30.09,9.0,South,5.8,-,N/A,,Clear,190,2013-08-27 12:54:00
8:54 AM,80.1,71.1,74,30.09,10.0,SW,10.4,-,N/A,,Clear,230,2013-08-27 13:54:00
9:54 AM,84.9,66.9,55,30.09,10.0,WSW,11.5,-,N/A,,Clear,250,2013-08-27 14:54:00
10:54 AM,88.0,66.9,49,30.09,10.0,WSW,11.5,-,N/A,,Clear,240,2013-08-27 15:54:00
11:54 AM,90.0,64.0,42,30.07,10.0,West,11.5,-,N/A,,Clear,270,2013-08-27 16:54:00
12:54 PM,93.0,63.0,37,30.05,10.0,WSW,13.8,20.7,N/A,,Clear,240,2013-08-27 17:54:00
1:54 PM,93.9,62.1,35,30.03,10.0,SW,17.3,-,N/A,,Clear,230,2013-08-27 18:54:00
2:54 PM,93.9,62.1,35,30.00,10.0,SW,11.5,-,N/A,,Partly Cloudy,230,2013-08-27 19:54:00
3:54 PM,95.0,62.1,33,29.99,10.0,WSW,13.8,23.0,N/A,,Partly Cloudy,240,2013-08-27 20:54:00
4:54 PM,93.9,62.1,35,29.99,10.0,SW,16.1,-,N/A,,Clear,230,2013-08-27 21:54:00
5:54 PM,89.1,61.0,39,29.99,10.0,SW,12.7,-,N/A,,Clear,230,2013-08-27 22:54:00
6:54 PM,89.1,61.0,39,29.99,10.0,SW,9.2,-,N/A,,Clear,230,2013-08-27 23:54:00
7:54 PM,82.0,63.0,52,29.99,10.0,SW,8.1,-,N/A,,Clear,220,2013-08-28 00:54:00
8:54 PM,75.9,64.9,69,30.00,10.0,SSW,6.9,-,N/A,,Clear,200,2013-08-28 01:54:00
9:54 PM,75.0,66.0,73,30.01,10.0,SSW,6.9,-,N/A,,Clear,200,2013-08-28 02:54:00
10:54 PM,73.0,64.9,76,30.02,10.0,SSW,6.9,-,N/A,,Clear,210,2013-08-28 03:54:00
11:54 PM,73.0,64.9,76,30.01,10.0,SSW,8.1,-,N/A,,Clear,210,2013-08-28 04:54:00